| time (UTC) | temp C | wind direction | speed KPH | gust KPH | rain 1hr cm | rain 24hr cm | rain mn cm | humidity % | barometer mb |
| 20260509040029 | 5 | 340 | 0.0 | 3.2 | 0.00 | 1.19 | 0.00 | 80 | 1013.2 |
| 20260509034526 | 5 | 340 | 0.0 | 0.0 | 0.00 | 1.19 | 1.19 | 80 | 1013.2 |
| 20260509033026 | 5 | 340 | 0.0 | 0.0 | 0.00 | 1.19 | 1.19 | 79 | 1013.0 |
| 20260509031526 | 6 | 340 | 0.0 | 0.0 | 0.00 | 1.19 | 1.19 | 79 | 1013.0 |
| 20260509030024 | 6 | 340 | 0.0 | 0.0 | 0.00 | 1.19 | 1.19 | 78 | 1013.1 |
| 20260509024523 | 7 | 340 | 0.0 | 0.0 | 0.00 | 1.19 | 1.19 | 76 | 1013.0 |
| 20260509023022 | 7 | 340 | 0.0 | 0.0 | 0.00 | 1.19 | 1.19 | 73 | 1012.8 |
| 20260509021521 | 8 | 340 | 0.0 | 0.0 | 0.00 | 1.19 | 1.19 | 72 | 1012.7 |
| 20260509020023 | 8 | 340 | 0.0 | 0.0 | 0.00 | 1.19 | 1.19 | 67 | 1012.6 |
| 20260509014517 | 9 | 340 | 0.0 | 0.0 | 0.00 | 1.19 | 1.19 | 64 | 1012.4 |
| 20260509013014 | 10 | 340 | 0.0 | 0.0 | 0.00 | 1.19 | 1.19 | 62 | 1012.1 |
| 20260509011513 | 10 | 340 | 0.0 | 0.0 | 0.00 | 1.19 | 1.19 | 60 | 1011.8 |
| 20260509010027 | 11 | 340 | 0.0 | 4.8 | 0.00 | 1.19 | 1.19 | 58 | 1011.4 |
| 20260509004517 | 11 | 335 | 1.6 | 6.4 | 0.00 | 1.19 | 1.19 | 57 | 1011.2 |
| 20260509003005 | 11 | 326 | 0.0 | 3.2 | 0.03 | 1.19 | 1.19 | 57 | 1010.9 |
| 20260509001504 | 11 | 326 | 0.0 | 3.2 | 0.03 | 1.19 | 1.19 | 57 | 1010.6 |
| 20260508234558 | 12 | 321 | 1.6 | 6.4 | 0.03 | 1.19 | 1.19 | 53 | 1009.9 |
| 20260508233111 | 12 | 304 | 0.0 | 12.9 | 0.00 | 1.17 | 1.17 | 51 | 1009.7 |
| 20260508231559 | 12 | 304 | 1.6 | 14.5 | 0.00 | 1.17 | 1.17 | 50 | 1009.7 |
| 20260508230105 | 13 | 330 | 6.4 | 20.9 | 0.00 | 1.17 | 1.17 | 47 | 1009.6 |
| 20260508224555 | 13 | 325 | 8.0 | 19.3 | 0.00 | 1.17 | 1.17 | 48 | 1009.5 |
| 20260508223056 | 13 | 308 | 3.2 | 22.5 | 0.00 | 1.17 | 1.17 | 48 | 1009.4 |
| 20260508221555 | 13 | 300 | 1.6 | 20.9 | 0.00 | 1.17 | 1.17 | 49 | 1009.3 |
| 20260508220057 | 13 | 259 | 3.2 | 22.5 | 0.00 | 1.17 | 1.17 | 48 | 1009.2 |
| 20260508214602 | 13 | 297 | 4.8 | 17.7 | 0.00 | 1.17 | 1.17 | 50 | 1009.2 |
| 20260508213054 | 13 | 300 | 3.2 | 17.7 | 0.00 | 1.17 | 1.17 | 51 | 1009.2 |
| 20260508211554 | 13 | 318 | 8.0 | 25.7 | 0.03 | 1.17 | 1.17 | 50 | 1009.1 |
| 20260508210053 | 13 | 355 | 4.8 | 19.3 | 0.03 | 1.17 | 1.17 | 51 | 1009.1 |
| 20260508204551 | 13 | 329 | 4.8 | 22.5 | 0.03 | 1.17 | 1.17 | 49 | 1009.0 |
| 20260508203052 | 13 | 326 | 3.2 | 20.9 | 0.05 | 1.17 | 1.17 | 49 | 1009.0 |
| 20260508201551 | 14 | 323 | 12.9 | 25.7 | 0.08 | 1.14 | 1.14 | 47 | 1008.7 |
| 20260508200056 | 14 | 328 | 12.9 | 25.7 | 0.15 | 1.14 | 1.14 | 46 | 1008.4 |
| 20260508194550 | 15 | 294 | 6.4 | 25.7 | 0.18 | 1.14 | 1.14 | 44 | 1008.3 |
| 20260508193053 | 15 | 300 | 1.6 | 19.3 | 0.20 | 1.12 | 1.12 | 41 | 1008.0 |
| 20260508191555 | 15 | 342 | 11.3 | 25.7 | 0.43 | 1.07 | 1.07 | 39 | 1007.9 |
| 20260508190051 | 15 | 315 | 4.8 | 17.7 | 0.36 | 0.99 | 0.99 | 39 | 1007.9 |
| 20260508184547 | 15 | 285 | 9.7 | 24.1 | 0.33 | 0.97 | 0.97 | 39 | 1007.8 |
| 20260508183046 | 15 | 360 | 6.4 | 17.7 | 0.28 | 0.91 | 0.91 | 42 | 1007.9 |
| 20260508181547 | 16 | 288 | 6.4 | 20.9 | 0.00 | 0.64 | 0.64 | 39 | 1008.0 |
| 20260508180046 | 16 | 329 | 8.0 | 16.1 | 0.03 | 0.64 | 0.64 | 39 | 1008.0 |
| 20260508174544 | 16 | 286 | 8.0 | 19.3 | 0.03 | 0.64 | 0.64 | 39 | 1008.0 |
| 20260508173045 | 15 | 340 | 4.8 | 25.7 | 0.03 | 0.64 | 0.64 | 41 | 1008.0 |
| 20260508171551 | 16 | 319 | 8.0 | 25.7 | 0.03 | 0.64 | 0.64 | 39 | 1008.1 |
| 20260508170046 | 16 | 291 | 4.8 | 14.5 | 0.00 | 0.61 | 0.61 | 41 | 1008.0 |
| 20260508164539 | 15 | 291 | 1.6 | 20.9 | 0.00 | 0.61 | 0.61 | 41 | 1008.2 |
| 20260508163037 | 15 | 351 | 3.2 | 19.3 | 0.03 | 0.61 | 0.61 | 42 | 1008.3 |
| 20260508161537 | 15 | 304 | 0.0 | 19.3 | 0.03 | 0.61 | 0.61 | 41 | 1008.4 |
| 20260508160035 | 15 | 167 | 3.2 | 17.7 | 0.03 | 0.61 | 0.61 | 42 | 1008.6 |
| 20260508154532 | 15 | 238 | 3.2 | 12.9 | 0.08 | 0.61 | 0.61 | 41 | 1008.9 |
| 20260508153032 | 15 | 326 | 4.8 | 19.3 | 0.05 | 0.58 | 0.58 | 43 | 1009.0 |
| 20260508151531 | 14 | 307 | 1.6 | 12.9 | 0.36 | 0.58 | 0.58 | 41 | 1009.1 |
| 20260508150025 | 14 | 26 | 6.4 | 14.5 | 0.51 | 0.58 | 0.58 | 41 | 1009.3 |
| 20260508144522 | 14 | 300 | 4.8 | 14.5 | 0.46 | 0.53 | 0.53 | 43 | 1009.2 |
| 20260508143018 | 14 | 232 | 4.8 | 12.9 | 0.46 | 0.53 | 0.53 | 43 | 1009.4 |
| 20260508141515 | 13 | 317 | 6.4 | 22.5 | 0.23 | 0.23 | 0.23 | 42 | 1009.3 |
| 20260508140010 | 13 | 332 | 6.4 | 16.1 | 0.08 | 0.08 | 0.08 | 44 | 1009.4 |
| 20260508134506 | 12 | 207 | 3.2 | 12.9 | 0.08 | 0.08 | 0.08 | 46 | 1009.6 |
| 20260508133002 | 12 | 325 | 6.4 | 16.1 | 0.08 | 0.08 | 0.08 | 47 | 1009.8 |
| 20260508131601 | 11 | 346 | 4.8 | 17.7 | 0.00 | 0.00 | 0.00 | 52 | 1009.8 |
| 20260508130109 | 10 | 316 | 1.6 | 8.0 | 0.00 | 0.00 | 0.00 | 55 | 1009.8 |
| 20260508124552 | 10 | 266 | 0.0 | 8.0 | 0.00 | 2.13 | 0.00 | 55 | 1009.8 |
| 20260508123049 | 10 | 285 | 1.6 | 9.7 | 0.00 | 2.13 | 0.00 | 56 | 1010.0 |
| 20260508121558 | 10 | 298 | 1.6 | 9.7 | 0.00 | 2.13 | 0.00 | 56 | 1009.9 |
| 20260508120047 | 9 | 313 | 3.2 | 8.0 | 0.00 | 2.13 | 0.00 | 59 | 1009.8 |
| 20260508114545 | 9 | 338 | 4.8 | 14.5 | 0.00 | 2.26 | 0.00 | 57 | 1009.9 |
| 20260508113045 | 8 | 306 | 4.8 | 14.5 | 0.00 | 2.26 | 0.00 | 60 | 1009.9 |
| 20260508111542 | 7 | 313 | 1.6 | 6.4 | 0.00 | 2.26 | 0.00 | 68 | 1009.7 |
| 20260508110041 | 6 | 330 | 1.6 | 4.8 | 0.00 | 2.26 | 0.00 | 73 | 1009.7 |
| 20260508104603 | 4 | 317 | 0.0 | 0.0 | 0.00 | 2.31 | 0.00 | 80 | 1009.6 |
| 20260508103043 | 4 | 317 | 0.0 | 0.0 | 0.00 | 2.31 | 0.00 | 80 | 1009.4 |
| 20260508101534 | 3 | 317 | 0.0 | 0.0 | 0.00 | 2.31 | 0.00 | 81 | 1009.2 |
| 20260508100033 | 3 | 317 | 0.0 | 0.0 | 0.00 | 2.31 | 0.00 | 84 | 1009.2 |
| 20260508094529 | 3 | 317 | 0.0 | 0.0 | 0.00 | 2.39 | 0.00 | 84 | 1009.1 |
| 20260508093027 | 3 | 317 | 0.0 | 0.0 | 0.00 | 2.39 | 0.00 | 83 | 1008.9 |
| 20260508091525 | 3 | 317 | 0.0 | 0.0 | 0.00 | 2.39 | 0.00 | 81 | 1008.7 |
| 20260508090024 | 3 | 317 | 0.0 | 0.0 | 0.00 | 2.39 | 0.00 | 80 | 1008.8 |
| 20260508084522 | 3 | 317 | 0.0 | 1.6 | 0.00 | 2.41 | 0.00 | 81 | 1008.8 |
| 20260508083021 | 3 | 317 | 0.0 | 1.6 | 0.00 | 2.41 | 0.00 | 80 | 1008.7 |
| 20260508081518 | 3 | 317 | 0.0 | 0.0 | 0.00 | 2.41 | 0.00 | 79 | 1008.3 |
| 20260508080015 | 4 | 317 | 0.0 | 0.0 | 0.00 | 2.41 | 0.00 | 77 | 1008.2 |
| 20260508074511 | 5 | 317 | 0.0 | 0.0 | 0.00 | 2.46 | 0.00 | 76 | 1007.8 |
| 20260508073008 | 5 | 317 | 0.0 | 0.0 | 0.00 | 2.46 | 0.00 | 73 | 1007.7 |
| 20260508071508 | 5 | 317 | 0.0 | 0.0 | 0.00 | 2.46 | 0.00 | 71 | 1007.5 |
| 20260508070006 | 6 | 317 | 0.0 | 0.0 | 0.00 | 2.46 | 0.00 | 70 | 1007.2 |
| 20260508064609 | 6 | 317 | 0.0 | 0.0 | 0.00 | 2.46 | 0.00 | 64 | 1007.0 |
| 20260508063056 | 7 | 317 | 0.0 | 0.0 | 0.00 | 2.46 | 0.00 | 63 | 1007.2 |
| 20260508061559 | 7 | 317 | 0.0 | 3.2 | 0.00 | 2.46 | 0.00 | 59 | 1007.2 |
| 20260508060049 | 7 | 317 | 0.0 | 6.4 | 0.00 | 2.46 | 0.00 | 59 | 1007.1 |
| 20260508054547 | 8 | 312 | 3.2 | 6.4 | 0.00 | 2.46 | 0.00 | 58 | 1007.2 |
| 20260508053050 | 8 | 298 | 1.6 | 4.8 | 0.00 | 2.46 | 0.00 | 58 | 1007.2 |
| 20260508051540 | 9 | 297 | 3.2 | 8.0 | 0.00 | 2.46 | 0.00 | 54 | 1007.2 |
| 20260508050039 | 9 | 335 | 1.6 | 8.0 | 0.00 | 2.46 | 0.00 | 54 | 1007.2 |
| 20260508044536 | 10 | 292 | 3.2 | 8.0 | 0.00 | 2.46 | 0.00 | 53 | 1007.4 |
| 20260508043052 | 10 | 291 | 3.2 | 6.4 | 0.00 | 2.46 | 0.00 | 53 | 1007.2 |
| 20260508041535 | 10 | 338 | 3.2 | 12.9 | 0.00 | 2.46 | 0.00 | 52 | 1007.2 |